{"data":{"norad_id":59676,"epoch":"2026-09-21T14:06:52.278048Z","epoch_age_seconds":77258,"freshness":"FRESH","line1":"1 59676U 24084Y   26264.58810507  .00011955  00000+0  44310-3 0  9990","line2":"2 59676  42.9993  15.4463 0000904 242.6561 117.4199 15.27590307134338","mean_motion":15.27590307,"eccentricity":9.04e-5,"inclination_deg":42.9993,"raan_deg":15.4463,"arg_perigee_deg":242.6561,"mean_anomaly_deg":117.4199,"bstar":0.0004431,"rev_number":13433,"period_min":94.266112674411,"perigee_km":482.39798491417,"apogee_km":483.63848178036,"semimajor_km":6861.1552333473,"source":"CELESTRAK","updated_at":"2026-09-22T09:00:49.030768Z"}}